CW3794 Weather Reports


Display with metric or nautical units.
time (UTC)temp
F
wind
direction
speed
MPH
gust
MPH
rain 1hr
in
rain 24hr
in
rain mn
in
humidity
%
barometer
mb
20260906051904 89 298 0.0 0.0 0.00 0.00 0.00 37 1008.4
20260906050904 90 301 0.0 0.0 0.00 0.00 0.00 37 1008.4
20260906050404 90 300 0.0 0.0 0.00 0.00 0.00 36 1008.5
20260906045904 90 298 0.0 0.0 0.00 0.00 0.00 36 1008.7
20260906044904 90 303 0.0 0.0 0.00 0.00 0.00 36 1008.7
20260906044404 90 298 0.0 0.0 0.00 0.00 0.00 36 1008.7
20260906043404 90 298 0.0 0.0 0.00 0.00 0.00 36 1008.7
20260906042903 90 297 0.0 0.0 0.00 0.00 0.00 36 1008.6
20260906042404 90 298 0.0 0.0 0.00 0.00 0.00 36 1008.7
20260906041904 90 298 0.0 0.0 0.00 0.00 0.00 36 1008.7
20260906041404 90 298 0.0 0.0 0.00 0.00 0.00 36 1008.8
20260906040904 90 297 0.0 0.0 0.00 0.00 0.00 36 1008.9
20260906040404 90 297 0.0 0.0 0.00 0.00 0.00 36 1008.8
20260906035904 90 298 0.0 0.0 0.00 0.00 0.00 36 1008.9
20260906035404 90 298 0.0 0.0 0.00 0.00 0.00 35 1008.8
20260906034904 91 297 0.0 0.0 0.00 0.00 0.00 35 1008.7
20260906034404 91 298 0.0 0.0 0.00 0.00 0.00 35 1008.6
20260906033904 91 299 0.0 0.0 0.00 0.00 0.00 34 1008.6
20260906033403 92 297 0.0 0.0 0.00 0.00 0.00 35 1008.6
20260906032904 92 297 0.0 0.0 0.00 0.00 0.00 34 1008.5
20260906032403 92 297 0.0 0.0 0.00 0.00 0.00 34 1008.4
20260906031904 92 298 0.0 0.0 0.00 0.00 0.00 34 1008.4
20260906031404 92 297 0.0 0.0 0.00 0.00 0.00 34 1008.3
20260906030903 92 298 0.0 0.0 0.00 0.00 0.00 34 1008.3
20260906030404 92 298 0.0 0.0 0.00 0.00 0.00 33 1008.3
20260906025904 92 298 0.0 0.0 0.00 0.00 0.00 34 1008.3
20260906025404 92 298 0.0 0.0 0.00 0.00 0.00 34 1008.3
20260906024903 92 298 0.0 0.0 0.00 0.00 0.00 33 1008.2
20260906023904 93 297 0.0 0.0 0.00 0.00 0.00 33 1008.1
20260906023403 93 294 0.0 0.0 0.00 0.00 0.00 33 1008.0
20260906022904 93 253 0.0 0.0 0.00 0.00 0.00 33 1008.0
20260906021403 93 289 0.0 0.0 0.00 0.00 0.00 32 1007.9
20260906020404 94 295 0.0 0.0 0.00 0.00 0.00 32 1007.9
20260906015404 94 280 0.0 0.0 0.00 0.00 0.00 31 1008.2
20260906014404 94 291 0.0 0.0 0.00 0.00 0.00 31 1008.3
20260906013904 94 290 0.0 0.0 0.00 0.00 0.00 31 1008.3
20260906012912 95 273 0.0 0.0 0.00 0.00 0.00 31 1008.3
20260906012404 95 292 0.0 2.0 0.00 0.00 0.00 31 1008.3
20260906011914 95 306 0.0 2.0 0.00 0.00 0.00 31 1008.3
20260906011404 95 275 0.0 0.0 0.00 0.00 0.00 31 1008.2
20260906010904 95 263 0.0 0.0 0.00 0.00 0.00 30 1008.3
20260906010404 96 257 0.0 0.0 0.00 0.00 0.00 30 1008.3
20260906004903 96 249 0.0 0.0 0.00 0.00 0.00 30 1008.3
20260906004404 97 248 0.0 1.0 0.00 0.00 0.00 29 1008.2
20260906003904 97 260 0.0 6.0 0.00 0.00 0.00 29 1008.3
20260906002904 97 319 0.0 6.0 0.00 0.00 0.00 29 1008.2
20260906002404 98 262 0.0 3.0 0.00 0.00 0.00 30 1008.0
20260906001904 98 269 0.0 2.0 0.00 0.00 0.00 29 1008.0
20260906001404 98 256 0.0 1.0 0.00 0.00 0.00 29 1007.9
20260906000904 98 312 0.0 3.0 0.00 0.00 0.00 29 1007.9
20260906000404 97 282 0.0 3.0 0.00 0.00 0.00 30 1008.0
20260905235405 98 252 0.0 1.0 0.00 0.00 0.00 29 1007.9
20260905234403 98 313 0.0 2.0 0.00 0.00 0.00 29 1007.9
20260905232903 99 259 0.0 0.0 0.00 0.00 0.00 28 1008.0
20260905232404 99 256 0.0 1.0 0.00 0.00 0.00 28 1008.1
20260905231903 99 246 1.0 3.0 0.00 0.00 0.00 28 1008.0
20260905231403 99 254 0.0 0.0 0.00 0.00 0.00 29 1008.0
20260905230904 99 254 0.0 0.0 0.00 0.00 0.00 29 1008.1
20260905225904 98 234 0.0 0.0 0.00 0.00 0.00 29 1008.0
20260905225404 98 267 0.0 0.0 0.00 0.00 0.00 30 1008.0
20260905224904 98 248 0.0 0.0 0.00 0.00 0.00 30 1008.0
20260905224404 97 277 0.0 0.0 0.00 0.00 0.00 31 1008.2
20260905223904 97 286 0.0 3.0 0.00 0.00 0.00 31 1008.2
20260905223404 97 251 0.0 0.0 0.00 0.00 0.00 31 1008.3
20260905222904 97 256 0.0 0.0 0.00 0.00 0.00 31 1008.3
20260905222404 97 260 0.0 0.0 0.00 0.00 0.00 31 1008.4
20260905221903 97 265 0.0 0.0 0.00 0.00 0.00 32 1008.4
20260905221404 97 264 0.0 0.0 0.00 0.00 0.00 32 1008.6
20260905220903 97 267 0.0 0.0 0.00 0.00 0.00 32 1008.6
20260905220404 97 231 0.0 0.0 0.00 0.00 0.00 32 1008.7
20260905215904 97 253 0.0 0.0 0.00 0.00 0.00 33 1008.6
20260905215404 97 231 0.0 0.0 0.00 0.00 0.00 32 1008.6
20260905214904 97 231 0.0 0.0 0.00 0.00 0.00 32 1008.7
20260905214404 98 232 0.0 0.0 0.00 0.00 0.00 32 1008.7
20260905213904 99 326 0.0 3.0 0.00 0.00 0.00 32 1008.7
20260905213403 99 248 0.0 1.0 0.00 0.00 0.00 32 1008.7
20260905212904 99 269 0.0 0.0 0.00 0.00 0.00 31 1008.8
20260905211404 99 309 0.0 3.0 0.00 0.00 0.00 31 1009.0
20260905210903 99 301 0.0 3.0 0.00 0.00 0.00 32 1009.0
20260905205903 99 240 0.0 0.0 0.00 0.00 0.00 31 1009.1
20260905205404 99 240 0.0 1.0 0.00 0.00 0.00 32 1009.1
20260905204904 98 218 0.0 0.0 0.00 0.00 0.00 32 1009.2
20260905204403 98 217 0.0 5.0 0.00 0.00 0.00 32 1009.2
20260905203405 98 221 0.0 0.0 0.00 0.00 0.00 32 1009.4
20260905202905 98 221 0.0 0.0 0.00 0.00 0.00 32 1009.5
20260905202405 97 220 0.0 3.0 0.00 0.00 0.00 32 1009.7
20260905201905 97 259 0.0 0.0 0.00 0.00 0.00 32 1009.7
20260905201405 97 259 0.0 0.0 0.00 0.00 0.00 32 1009.8
20260905200405 97 229 0.0 0.0 0.00 0.00 0.00 33 1009.9
20260905195906 97 229 0.0 0.0 0.00 0.00 0.00 32 1009.8
20260905195405 96 229 0.0 0.0 0.00 0.00 0.00 33 1009.9
20260905194905 96 229 0.0 0.0 0.00 0.00 0.00 33 1010.0
20260905193905 97 229 0.0 0.0 0.00 0.00 0.00 32 1010.1
20260905193405 97 229 0.0 0.0 0.00 0.00 0.00 32 1010.1
20260905192906 97 229 0.0 0.0 0.00 0.00 0.00 32 1010.3
20260905192405 97 228 0.0 0.0 0.00 0.00 0.00 32 1010.3
20260905191905 97 228 0.0 0.0 0.00 0.00 0.00 32 1010.4
20260905191405 96 229 0.0 0.0 0.00 0.00 0.00 33 1010.5
20260905190905 96 229 0.0 0.0 0.00 0.00 0.00 33 1010.6
20260905190406 96 228 0.0 0.0 0.00 0.00 0.00 33 1010.7
20260905184405 96 229 0.0 0.0 0.00 0.00 0.00 32 1010.9
20260905182406 95 232 0.0 0.0 0.00 0.00 0.00 34 1011.1
20260905181905 94 232 0.0 0.0 0.00 0.00 0.00 34 1011.2
20260905180906 94 232 0.0 0.0 0.00 0.00 0.00 34 1011.2
20260905175905 94 232 0.0 0.0 0.00 0.00 0.00 35 1011.1
20260905175405 93 232 0.0 0.0 0.00 0.00 0.00 36 1011.2
20260905174905 92 232 0.0 0.0 0.00 0.00 0.00 36 1011.2
20260905174405 92 232 0.0 0.0 0.00 0.00 0.00 37 1011.1
20260905173405 92 232 0.0 0.0 0.00 0.00 0.00 36 1011.2
20260905172905 91 232 0.0 0.0 0.00 0.00 0.00 36 1011.4
20260905172405 91 232 0.0 0.0 0.00 0.00 0.00 37 1011.3
20260905171905 91 232 0.0 0.0 0.00 0.00 0.00 37 1011.3
20260905171405 91 232 0.0 0.0 0.00 0.00 0.00 37 1011.3
20260905170905 91 232 0.0 0.0 0.00 0.00 0.00 37 1011.3
20260905170405 91 232 0.0 0.0 0.00 0.00 0.00 37 1011.2
20260905165905 91 232 0.0 0.0 0.00 0.00 0.00 36 1011.1
20260905165405 90 232 0.0 0.0 0.00 0.00 0.00 36 1011.3
20260905163905 90 232 0.0 0.0 0.00 0.00 0.00 37 1011.3
20260905163405 90 232 0.0 0.0 0.00 0.00 0.00 37 1011.3
20260905162405 89 232 0.0 0.0 0.00 0.00 0.00 39 1011.1
20260905161905 90 232 0.0 0.0 0.00 0.00 0.00 38 1011.1
20260905161406 90 232 0.0 0.0 0.00 0.00 0.00 37 1011.1
20260905160905 89 232 0.0 0.0 0.00 0.00 0.00 38 1011.0
20260905160406 89 232 0.0 0.0 0.00 0.00 0.00 37 1011.0
20260905155905 89 231 0.0 0.0 0.00 0.00 0.00 38 1011.0
20260905155405 89 232 0.0 0.0 0.00 0.00 0.00 37 1011.2
20260905154406 89 232 0.0 0.0 0.00 0.00 0.00 38 1011.1
20260905153405 89 232 0.0 0.0 0.00 0.00 0.00 38 1010.9
20260905152405 89 232 0.0 0.0 0.00 0.00 0.00 37 1010.9
20260905151905 89 232 0.0 0.0 0.00 0.00 0.00 39 1010.7
20260905151405 89 232 0.0 0.0 0.00 0.00 0.00 38 1010.7
20260905150406 88 232 0.0 0.0 0.00 0.00 0.00 40 1010.7
20260905145406 87 232 0.0 0.0 0.00 0.00 0.00 43 1011.0
20260905144905 86 232 0.0 0.0 0.00 0.00 0.00 43 1010.9
20260905144405 86 232 0.0 0.0 0.00 0.00 0.00 45 1010.8
20260905143906 85 232 0.0 0.0 0.00 0.00 0.00 45 1010.8
20260905143405 85 232 0.0 0.0 0.00 0.00 0.00 45 1010.7
20260905142906 85 232 0.0 0.0 0.00 0.00 0.00 45 1010.7
20260905142405 84 232 0.0 0.0 0.00 0.00 0.00 46 1010.7
20260905141905 84 232 0.0 0.0 0.00 0.00 0.00 46 1010.7
20260905140905 83 232 0.0 0.0 0.00 0.00 0.00 46 1010.7
20260905140406 83 232 0.0 0.0 0.00 0.00 0.00 47 1010.6
20260905135905 83 232 0.0 0.0 0.00 0.00 0.00 47 1010.5
20260905135406 82 232 0.0 0.0 0.00 0.00 0.00 48 1010.5
20260905134405 81 232 0.0 0.0 0.00 0.00 0.00 49 1010.4
20260905133905 81 232 0.0 0.0 0.00 0.00 0.00 49 1010.3
20260905133405 80 232 0.0 0.0 0.00 0.00 0.00 49 1010.3
20260905132905 80 232 0.0 0.0 0.00 0.00 0.00 49 1010.4
20260905132405 80 232 0.0 0.0 0.00 0.00 0.00 49 1010.3
20260905131405 80 232 0.0 0.0 0.00 0.00 0.00 49 1010.2
20260905130905 80 232 0.0 0.0 0.00 0.00 0.00 49 1010.3
20260905130405 80 231 0.0 0.0 0.00 0.00 0.00 49 1010.2
20260905125905 80 232 0.0 0.0 0.00 0.00 0.00 50 1010.0
20260905125405 80 232 0.0 0.0 0.00 0.00 0.00 50 1009.9
20260905124905 80 231 0.0 0.0 0.00 0.00 0.00 50 1009.8
20260905124405 80 232 0.0 0.0 0.00 0.00 0.00 50 1009.8
20260905123405 80 231 0.0 0.0 0.00 0.00 0.00 49 1009.6
20260905122905 80 232 0.0 0.0 0.00 0.00 0.00 49 1009.6
20260905121405 80 232 0.0 0.0 0.00 0.00 0.00 48 1009.5
20260905120905 80 231 0.0 0.0 0.00 0.00 0.00 48 1009.6
20260905120405 80 231 0.0 0.0 0.00 0.00 0.00 48 1009.6
20260905115405 80 232 0.0 0.0 0.00 0.00 0.00 49 1009.6
20260905114404 80 231 0.0 0.0 0.00 0.00 0.00 48 1009.5
20260905113905 81 231 0.0 0.0 0.00 0.00 0.00 48 1009.5
20260905113405 81 232 0.0 0.0 0.00 0.00 0.00 47 1009.5
20260905112905 81 231 0.0 0.0 0.00 0.00 0.00 47 1009.5
20260905112405 81 231 0.0 0.0 0.00 0.00 0.00 47 1009.4
20260905111905 81 232 0.0 0.0 0.00 0.00 0.00 47 1009.5
20260905111405 81 231 0.0 0.0 0.00 0.00 0.00 47 1009.5
20260905110405 82 232 0.0 0.0 0.00 0.00 0.00 46 1009.3
20260905105905 82 232 0.0 0.0 0.00 0.00 0.00 46 1009.3
20260905105405 82 231 0.0 0.0 0.00 0.00 0.00 46 1009.3
20260905104906 82 231 0.0 0.0 0.00 0.00 0.00 46 1009.3
20260905104405 82 232 0.0 0.0 0.00 0.00 0.00 45 1009.2
20260905103405 82 232 0.0 0.0 0.00 0.00 0.00 45 1009.2
20260905102405 83 232 0.0 0.0 0.00 0.00 0.00 44 1009.1
20260905101905 83 232 0.0 0.0 0.00 0.00 0.00 44 1009.1
20260905101405 83 232 0.0 0.0 0.00 0.00 0.00 44 1009.1
20260905100905 83 231 0.0 0.0 0.00 0.00 0.00 44 1009.0
20260905100405 83 231 0.0 0.0 0.00 0.00 0.00 44 1008.9
20260905095905 83 232 0.0 0.0 0.00 0.00 0.00 44 1008.9
20260905095405 83 231 0.0 0.0 0.00 0.00 0.00 44 1009.0
20260905094905 83 232 0.0 0.0 0.00 0.00 0.00 43 1009.0
20260905093404 84 231 0.0 0.0 0.00 0.00 0.00 42 1008.9
20260905092905 84 232 0.0 0.0 0.00 0.00 0.00 42 1008.9
20260905092405 84 231 0.0 0.0 0.00 0.00 0.00 42 1008.9
20260905091905 84 231 0.0 0.0 0.00 0.00 0.00 42 1009.0
20260905090904 85 232 0.0 0.0 0.00 0.00 0.00 41 1008.9
20260905090404 85 231 0.0 0.0 0.00 0.00 0.00 41 1008.9
20260905085905 86 232 0.0 0.0 0.00 0.00 0.00 40 1008.9
20260905084905 86 232 0.0 0.0 0.00 0.00 0.00 40 1008.9
20260905084405 86 231 0.0 0.0 0.00 0.00 0.00 40 1008.9
20260905083905 86 232 0.0 0.0 0.00 0.00 0.00 40 1009.0
20260905083405 86 232 0.0 0.0 0.00 0.00 0.00 39 1009.0
20260905082404 86 232 0.0 0.0 0.00 0.00 0.00 39 1009.0
20260905081905 87 231 0.0 0.0 0.00 0.00 0.00 38 1009.1
20260905080905 87 232 0.0 0.0 0.00 0.00 0.00 38 1009.1
20260905080405 87 231 0.0 0.0 0.00 0.00 0.00 38 1009.0
20260905075905 88 231 0.0 0.0 0.00 0.00 0.00 37 1009.1
20260905074905 88 231 0.0 0.0 0.00 0.00 0.00 37 1009.0
20260905074405 88 232 0.0 0.0 0.00 0.00 0.00 37 1009.0
20260905073905 88 232 0.0 0.0 0.00 0.00 0.00 37 1008.9
20260905073405 89 232 0.0 0.0 0.00 0.00 0.00 36 1008.9
20260905071905 89 231 0.0 0.0 0.00 0.00 0.00 35 1008.9
20260905071405 89 231 0.0 0.0 0.00 0.00 0.00 35 1008.7
20260905070905 90 231 0.0 0.0 0.00 0.00 0.00 35 1008.7
20260905070405 90 231 0.0 0.0 0.00 0.00 0.00 35 1008.7
20260905065905 90 231 0.0 0.0 0.00 0.00 0.00 35 1008.8
20260905064905 90 231 0.0 0.0 0.00 0.00 0.00 35 1008.7
20260905064405 91 231 0.0 0.0 0.00 0.00 0.00 34 1008.7
20260905063904 91 231 0.0 0.0 0.00 0.00 0.00 34 1008.6
20260905062904 91 231 0.0 0.0 0.00 0.00 0.00 34 1008.5
20260905062405 91 231 0.0 0.0 0.00 0.00 0.00 34 1008.5
20260905061905 91 231 0.0 0.0 0.00 0.00 0.00 34 1008.5
20260905061405 91 231 0.0 0.0 0.00 0.00 0.00 33 1008.5
20260905060905 92 231 0.0 0.0 0.00 0.00 0.00 33 1008.4
20260905060405 92 231 0.0 0.0 0.00 0.00 0.00 33 1008.4
20260905055905 92 230 0.0 0.0 0.00 0.00 0.00 33 1008.4
20260905055405 92 231 0.0 0.0 0.00 0.00 0.00 33 1008.4
20260905054905 92 231 0.0 0.0 0.00 0.00 0.00 33 1008.5
20260905054405 92 231 0.0 0.0 0.00 0.00 0.00 33 1008.4
20260905053905 92 231 0.0 0.0 0.00 0.00 0.00 32 1008.3
20260905053405 92 232 0.0 0.0 0.00 0.00 0.00 32 1008.3
20260905052905 92 231 0.0 0.0 0.00 0.00 0.00 32 1008.3
20260905052405 92 231 0.0 0.0 0.00 0.00 0.00 32 1008.3